Regional Weather Roundup
Issued by NWS Charleston, WV

Home | Current Version | Previous Version | Graphics & Text | Print | Product List | Glossary On
Versions: 1 2 3 4 5 6 7 8 9 10 11 12 13 14 15 16 17 18 19 20 21 22 23 24 25 26 27 28 29 30 31 32 33 34 35 36 37 38 39 40 41 42 43 44 45 46 47 48 49 50
000
ASUS41 KRLX 201710
RWRRLX
West Virginia Regional Weather Roundup
National Weather Service Charleston WV
1200 PM EST MON NOV 20 2017

Note: "fair" indicates few or no clouds below 12,000 feet with no
significant weather and/or obstructions to visibility.

WVZ003-201800-
Northern Panhandle of West Virginia

CITY           SKY/WX    TMP DP  RH WIND       PRES   REMARKS
WHEELING       SUNNY     36  21  54 SW13      30.15F
$$

WVZ009-201800-
Northwest West Virginia

CITY           SKY/WX    TMP DP  RH WIND       PRES   REMARKS
PARKERSBURG    SUNNY     39  22  50 S10       30.25F
$$

WVZ006-201800-
Western West Virginia

CITY           SKY/WX    TMP DP  RH WIND       PRES   REMARKS
HUNTINGTON     SUNNY     41  22  46 S9        30.25F
$$

WVZ015-201800-
West Central West Virginia

CITY           SKY/WX    TMP DP  RH WIND       PRES   REMARKS
CHARLESTON     SUNNY     41  21  44 SW9       30.24F
$$

WVZ022-031-201800-
North Central West Virginia

CITY           SKY/WX    TMP DP  RH WIND       PRES   REMARKS
CLARKSBURG     SUNNY     40  22  48 SW8       30.19F
MORGANTOWN     SUNNY     37  23  56 SW8       30.18F
$$

WVZ025-035-042-045-201800-
Southern West Virginia

CITY           SKY/WX    TMP DP  RH WIND       PRES   REMARKS
BECKLEY        SUNNY     36  22  56 S6        30.20F
LOGAN            N/A     39  23  52 CALM      30.23F
BLUEFIELD      SUNNY     36  17  46 VRB5      30.21F
LEWISBURG      SUNNY     38  21  49 SW9       30.21F
$$

WVZ047-201800-
Northern Mountains of West Virginia

CITY           SKY/WX    TMP DP  RH WIND       PRES   REMARKS
ELKINS         SUNNY     39  17  41 NW5       30.18F
$$

WVZ052-201800-
Eastern Panhandle of West Virginia

CITY           SKY/WX    TMP DP  RH WIND       PRES   REMARKS
MARTINSBURG    SUNNY     45  20  36 SW9       30.16F
PETERSBURG     SUNNY     45  20  37 W14       30.17F
$$




USA.gov is the U.S. government's official web portal to all federal, state and local government web resources and services.